CZ-2D DEB, 43403

Orbit data source: Space-Track

CZ-2D DEB, 43403 is space debris in SSO originally from a launch on Sat, 29 Sep 2012 UTC launched from the Jiuquan Satellite Launch Center, China (JSC). Debris objects in space refer to the collection of defunct objects orbiting the Earth. Examples of debris include non-operational satellites, rocket bodies, and fragments generated from explosions, collisions, or faulty payload assembly.

Loading next visibility...
Identifier
43403, 2012-052C
Orbit
SSO
Country
Flag of CNCN / PRC
Related business
Manufacturer
SAST
Mission
Spacecraft
Bus & Motor
Unknown
Mass
Unknown
Launch date (UTC)
2012-09-29 (14 years ago)
Launch vehicle
Unknown
Launch site
Jiuquan Satellite Launch Center, China (JSC)
Object type
Payload
Rocket body
Debris
Shape & HBR
Unknown shape, 0.1 m
Radar Cross Section
Small (<0.1 m²)

Expand to show TLE details & history
Last TLE update: 1 week ago

TLE from 1 week ago
0 CZ-2D DEB
1 43403U 12052C   26088.99884031  .00005203  00000-0  12798-2 0  9999
2 43403  98.0187 184.6830 0190773 178.4869 181.6940 14.42206720644886
Epoch: 2026-03-29T23:58Z
TLE epoch observation values (Epoch: 2026-03-29T23:58:19.802Z)
Latitude
-0.00007°
Longitude
-2.29618°
Altitude
890.164 km
Speed
7.336 km/s
True Right ascension
12h 18m 43s
True Declination
0° 00' 00"
Sunlit
Object was in full shadow at epoch
Visualization orbit readout
Latitude
Unknown
Longitude
Unknown
Altitude
Unknown
Speed
Unknown
Apparent Right ascension
Unknown
Apparent Declination
Unknown
Sunlit
N/A
Visualization observer readout
Local Sidereal Time
23:14:12
Azimuth
Unknown
Elevation
Unknown
Doppler factor
Unknown
Orbital elements
Apogee altitude
884.265 km
Perigee altitude
612.359 km
Semi-major axis
7,126.449 km
Eccentricity
0.01908
Inclination
98.0187°
RAAN
184.683°
Arg. of periapsis
178.4869°
True anomaly
181.63088°
Mean anomaly
181.694°
Eccentric anomaly
181.66229°
Mean motion
3.60772 °/min
Orbital period
99.79 mins
BSTAR
0.0012798
Loading maneuver chart data...
Computing Atmospheric mass density...
Loading historical data...
Loading historical data...
Loading historical data...
Loading historical data...
Loading historical data...
Loading historical data...
Loading historical data...
Other satellites on launch #52 in the year 2012 (2012-09-29 UTC)

Documentation

Showing up to 5 results
|